Regional Weather Roundup
Issued by NWS

Home | Current Version | Previous Version | Graphics & Text | Print | Product List | Glossary On
Versions: 1 2 3 4 5 6 7 8 9 10 11 12 13 14 15 16 17 18 19 20 21 22 23 24 25 26 27 28 29 30 31 32 33 34 35 36 37 38 39 40 41 42 43 44 45 46 47 48 49 50
000
ASUS43 KDMX 160207
RWRIA

WEATHER ROUNDUP FOR IOWA
NATIONAL WEATHER SERVICE DES MOINES IA
900 PM CDT MON SEP 15 2014

NOTE: "FAIR" INDICATES FEW OR NO CLOUDS BELOW 12,000 FEET WITH NO
SIGNIFICANT WEATHER AND/OR OBSTRUCTIONS TO VISIBILITY.

* - THESE STATIONS ARE NOT NWS STATIONS...THUS NOT UNDER NWS
QUALITY CONTROL.  THEY ALSO DO NOT REPORT WEATHER SUCH
AS PRECIPITATION OR FOG.

IAZ001>003-012>014-020>022-031>034-043>046-160300-
   NORTHWEST IOWA

CITY           SKY/WX    TMP DP  RH WIND       PRES   REMARKS
CARROLL *      PTCLDY    46  45  93 CALM      30.24S
CHEROKEE *     CLEAR     48  46  93 CALM      30.25R
DENISON *      CLEAR     48  46  93 CALM      30.23S
LE MARS *        N/A     48  46  93 CALM      30.25S
ORANGE CITY *  CLEAR     55  45  67 CALM      30.25R
SHELDON *      CLEAR     45  43  93 CALM      30.24R
SIOUX CITY     CLEAR     48  45  89 CALM      30.25R
SPENCER        CLEAR     45  42  89 CALM      30.25R
STORM LAKE *   CLEAR     48  45  87 CALM      30.24S
$$

IAZ055>058-069>071-079>083-090>094-160300-
   SOUTHWEST IOWA

CITY           SKY/WX    TMP DP  RH WIND       PRES   REMARKS
ATLANTIC *     MOCLDY    48  46  93 N5        30.25R
AUDUBON *      CLEAR     48  46  93 CALM      30.26R
CLARINDA *     CLEAR     48  48 100 CALM      30.27R
COUNCIL BLFS * CLEAR     54  50  87 NE5       30.24R
CRESTON *      CLEAR     52  48  87 NW3       30.25R
HARLAN  *      CLEAR     48  48 100 CALM      30.28R
LAMONI         MOCLDY    54  48  80 N3        30.24R
SHENANDOAH *     N/A     50  48  93 NE3       30.26R
$$

IAZ047>049-059>061-072>074-084-160300-
   CENTRAL IOWA

CITY           SKY/WX    TMP DP  RH WIND       PRES   REMARKS
AMES           PTCLDY    48  46  93 W6        30.24R
ANKENY *       CLEAR     48  48 100 CALM      30.24R
CHARITON *     PTCLDY    52  50  93 CALM      30.23R
DES MOINES     PTCLDY    55  45  68 N5        30.24R
GRINNELL*      CLEAR     48  46  93 NW5       30.23R
KNOXVILLE *    CLEAR     50  46  87 NW5       30.22R
MARSHALLTOWN   CLEAR     50  46  86 N3        30.22R
PELLA *        CLEAR     50  46  87 NW3       30.24R
PERRY *          N/A     48  46  93 CALM      30.24S
$$

IAZ004>006-015-016-023>025-035-036-160300-
   NORTH CENTRAL IOWA

CITY           SKY/WX    TMP DP  RH WIND       PRES   REMARKS
ALGONA *       CLEAR     48  43  81 NW5       30.24S
CLARION *        N/A     46  43  87 CALM      30.23R
ESTHERVILLE    CLEAR     45  41  86 W3        30.24R
FORT DODGE *   CLEAR     46  43  87 CALM      30.25R
MASON CITY     CLEAR     45  42  89 CALM      30.24R
FOREST CITY *    N/A     45  45 100 CALM      30.23R
IOWA FALLS *     N/A     45  43  93 CALM      30.24R
$$

IAZ007>011-017>019-026>030-037>042-050>054-066-160300-
   NORTHEAST IOWA

CITY           SKY/WX    TMP DP  RH WIND       PRES   REMARKS
CEDAR RAPIDS   CLEAR     53  46  77 NE5       30.21R
CHARLES CITY * CLEAR     48  43  81 W6        30.23R
CLINTON *      CLEAR     46  45  93 W6        30.22R
DECORAH *      PTCLDY    50  43  76 CALM      30.21R
DUBUQUE        CLEAR     45  44  97 CALM      30.21R
MONTICELLO *   CLEAR     46  46 100 CALM      30.21R
OELWEIN *      MOCLDY    52  48  87 N5        30.22R
WATERLOO       CLEAR     45  42  89 NW3       30.22R
$$

IAZ064-065-067-068-078-160300-
   EAST CENTRAL IOWA

CITY           SKY/WX    TMP DP  RH WIND       PRES   REMARKS
DAVENPORT      CLEAR     50  47  89 NW3       30.20R
IOWA CITY      CLEAR     54  48  80 N6        30.22R
MT. PLEASANT * CLOUDY    55  50  82 CALM      30.21R
MUSCATINE *    CLEAR     55  50  82 CALM      30.21R
QUAD CITIES    CLEAR     54  48  80 CALM      30.20R
$$

IAZ062-063-075>077-085>089-095>099-160300-
   SOUTHEAST IOWA

CITY           SKY/WX    TMP DP  RH WIND       PRES   REMARKS
BURLINGTON     CLOUDY    57  50  77 N13       30.20R
FAIRFIELD *    PTCLDY    54  50  87 N3        30.21S
FORT MADISON * CLOUDY    57  52  82 N9G16     30.21R
KEOKUK *       CLOUDY    59  52  77 N9        30.19R
OSKALOOSA *      N/A     50  48  93 CALM      30.22R
CENTERVILLE *    N/A     54  50  87 N3        30.23S
OTTUMWA        CLEAR     49  47  93 NW6       30.22R
WASHINGTON *   CLEAR     54  50  87 N5        30.21R
$$

ABBREVIATIONS USED IN REMARKS
   TC - TEMPERATURES IN CELSIUS
  WCI - WIND CHILL INDEX
   HX - HEAT INDEX
  VSB - VISIBILITY
$$



USA.gov is the U.S. government's official web portal to all federal, state and local government web resources and services.